Idabel, OK

2:55 PM CDT on March 30, 2017 (GMT -0500)
Idabel

Weather History for K4O4 - October, 2013

Change the Weather History Date:

Tuesday, October 22, 2013

  Actual Average (KPRX) Record (KPRX)
Temperature  
Mean Temperature 54 °F -  
Max Temperature 71 °F 72 °F 91 °F (2003)
Min Temperature 37 °F 53 °F 39 °F (2006)
Degree Days  
Heating Degree Days 11    
Growing Degree Days 4 (Base 50)    
Moisture  
Dew Point 43 °F    
Average Humidity 70    
Maximum Humidity 100    
Minimum Humidity 31    
Precipitation  
Precipitation 0.00 in - - ()
Sea Level Pressure  
Sea Level Pressure 30.07 in    
Wind  
Wind Speed 4 mph (West)    
Max Wind Speed 13 mph    
Max Gust Speed 17 mph    
Visibility 8 miles    
Events      
Averages and records for this station are not official NWS values.
T = Trace of Precipitation, MM = Missing Value Source: NWS Daily Summary

Daily Weather History Graph

Daily Weather History Graph

Search for Another Location

Airport or City:

Trip Planner

Search our weather history database for the weather conditions in past years. The results will help you decide how hot, cold, wet, or windy it might be!

Date:

Astronomy

Oct. 22, 2013 Rise Set
Actual Time 7:30 AM CDT 6:36 PM CDT
Civil Twilight 7:04 AM CDT 7:02 PM CDT
Nautical Twilight 6:35 AM CDT 7:31 PM CDT
Astronomical Twilight 6:06 AM CDT 8:00 PM CDT
Moon 9:25 PM CDT (10/22) 10:52 AM CDT (10/22)
Length of Visible Light 11h 57m
Length of Day
11h 06m
Waning Gibbous, 86% of the Moon is Illuminated
Oct 22
Waning Gibbous
Oct 26
Last Quarter
Nov 3
New
Nov 9
First Quarter
Nov 17
Full

Hourly Weather History & Observations

Time (CDT) Temp. Windchill Dew Point Humidity Pressure Visibility Wind Dir Wind Speed Gust Speed Precip Events Conditions
12:15 AM 51.8 °F - 50.0 °F 94% 30.08 in 5.0 mi North 6.9 mph - N/A   Scattered Clouds
12:35 AM 51.8 °F - 50.0 °F 94% 30.08 in 4.0 mi NNW 5.8 mph - N/A   Clear
12:55 AM 50.0 °F - 50.0 °F 100% 30.08 in 4.0 mi NNW 5.8 mph - N/A   Clear
1:15 AM 50.0 °F - 48.2 °F 94% 30.08 in 4.0 mi NNW 3.5 mph - N/A   Clear
1:35 AM 50.0 °F - 46.4 °F 87% 30.08 in 2.5 mi Calm Calm - N/A   Clear
1:55 AM 48.2 °F - 46.4 °F 93% 30.09 in 1.2 mi Calm Calm - N/A   Unknown
2:15 AM 48.2 °F - 46.4 °F 93% 30.09 in 0.5 mi NW 3.5 mph - N/A   Unknown
2:35 AM 46.4 °F 45.2 °F 44.6 °F 93% 30.09 in 1.8 mi NW 3.5 mph - N/A   Unknown
2:55 AM 46.4 °F 45.2 °F 44.6 °F 93% 30.10 in 4.0 mi NW 3.5 mph - N/A   Clear
3:15 AM 46.4 °F - 44.6 °F 93% 30.10 in 7.0 mi Calm Calm - N/A   Clear
3:35 AM 46.4 °F 45.2 °F 44.6 °F 93% 30.10 in 7.0 mi NW 3.5 mph - N/A   Clear
3:55 AM 44.6 °F - 42.8 °F 93% 30.09 in 4.0 mi Calm Calm - N/A   Clear
4:15 AM 44.6 °F - 42.8 °F 93% 30.09 in 7.0 mi Calm Calm - N/A   Clear
4:35 AM 42.8 °F - 41.0 °F 93% 30.08 in 0.2 mi Calm Calm - N/A   Unknown
4:55 AM 41.0 °F - 39.2 °F 93% 30.08 in 0.2 mi Calm Calm - N/A   Unknown
5:15 AM 41.0 °F - 39.2 °F 93% 30.09 in 0.8 mi Calm Calm - N/A   Unknown
5:35 AM 41.0 °F - 39.2 °F 93% 30.09 in 0.8 mi Calm Calm - N/A   Unknown
5:55 AM 41.0 °F - 41.0 °F 100% 30.10 in 0.8 mi Calm Calm - N/A   Unknown
6:15 AM 41.0 °F - 39.2 °F 93% 30.10 in 0.8 mi Calm Calm - N/A   Unknown
6:35 AM 37.4 °F - 37.4 °F 100% 30.10 in 1.0 mi Calm Calm - N/A   Unknown
6:55 AM 37.4 °F 33.8 °F 37.4 °F 100% 30.11 in 0.5 mi West 4.6 mph - N/A   Unknown
7:15 AM 37.4 °F - 35.6 °F 93% 30.11 in 0.8 mi Calm Calm - N/A   Unknown
7:35 AM 37.4 °F - 35.6 °F 93% 30.11 in 5.0 mi Calm Calm - N/A   Clear
7:55 AM 37.4 °F - 35.6 °F 93% 30.12 in 4.0 mi Calm Calm - N/A   Clear
8:15 AM 41.0 °F - 41.0 °F 100% 30.12 in 10.0 mi Calm Calm - N/A   Clear
8:35 AM 44.6 °F - 44.6 °F 100% 30.13 in 10.0 mi Calm Calm - N/A   Clear
9:15 AM 48.2 °F - 48.2 °F 100% 30.13 in 10.0 mi Calm Calm - N/A   Clear
9:35 AM 51.8 °F - 50.0 °F 94% 30.14 in 10.0 mi Calm Calm - N/A   Clear
9:55 AM 53.6 °F - 51.8 °F 94% 30.15 in 10.0 mi Calm Calm - N/A   Clear
10:15 AM 55.4 °F - 50.0 °F 82% 30.15 in 10.0 mi Calm Calm - N/A   Clear
10:35 AM 59.0 °F - 46.4 °F 63% 30.14 in 10.0 mi Calm Calm - N/A   Clear
10:55 AM 60.8 °F - 44.6 °F 55% 30.15 in 10.0 mi Calm Calm - N/A   Clear
11:15 AM 60.8 °F - 44.6 °F 55% 30.14 in 10.0 mi SSW 3.5 mph - N/A   Clear
11:35 AM 62.6 °F - 46.4 °F 55% 30.13 in 10.0 mi SW 4.6 mph - N/A   Clear
11:55 AM 60.8 °F - 46.4 °F 59% 30.13 in 10.0 mi South 8.1 mph - N/A   Clear
12:15 PM 62.6 °F - 42.8 °F 48% 30.12 in 10.0 mi SSW 4.6 mph - N/A   Clear
12:35 PM 64.4 °F - 41.0 °F 42% 30.11 in 10.0 mi SSW 4.6 mph - N/A   Clear
12:55 PM 64.4 °F - 41.0 °F 42% 30.10 in 10.0 mi WSW 3.5 mph - N/A   Clear
1:15 PM 66.2 °F - 41.0 °F 40% 30.09 in 10.0 mi SW 4.6 mph - N/A   Clear
1:35 PM 68.0 °F - 41.0 °F 37% 30.07 in 10.0 mi WSW 8.1 mph - N/A   Clear
1:55 PM 68.0 °F - 41.0 °F 37% 30.06 in 10.0 mi WSW 4.6 mph - N/A   Clear
2:15 PM 68.0 °F - 37.4 °F 33% 30.05 in 10.0 mi WSW 6.9 mph - N/A   Clear
2:35 PM 69.8 °F - 37.4 °F 31% 30.03 in 10.0 mi WSW 8.1 mph - N/A   Clear
2:55 PM 69.8 °F - 39.2 °F 33% 30.03 in 10.0 mi WNW 9.2 mph - N/A   Clear
3:15 PM 71.6 °F - 39.2 °F 31% 30.02 in 10.0 mi SW 8.1 mph - N/A   Clear
3:35 PM 71.6 °F - 41.0 °F 33% 30.02 in 10.0 mi West 10.4 mph 17.3 mph N/A   Clear
3:55 PM 71.6 °F - 41.0 °F 33% 30.01 in 10.0 mi WSW 10.4 mph 16.1 mph N/A   Clear
4:15 PM 71.6 °F - 41.0 °F 33% 30.01 in 10.0 mi West 10.4 mph - N/A   Clear
4:35 PM 71.6 °F - 41.0 °F 33% 30.01 in 10.0 mi WSW 11.5 mph - N/A   Clear
4:55 PM 71.6 °F - 41.0 °F 33% 30.01 in 10.0 mi West 12.7 mph - N/A   Clear
5:15 PM 71.6 °F - 41.0 °F 33% 30.00 in 10.0 mi West 8.1 mph - N/A   Clear
5:35 PM 71.6 °F - 41.0 °F 33% 30.00 in 10.0 mi WSW 9.2 mph - N/A   Clear
5:55 PM 71.6 °F - 42.8 °F 35% 29.99 in 10.0 mi West 6.9 mph - N/A   Clear
6:15 PM 69.8 °F - 44.6 °F 40% 29.99 in 10.0 mi WSW 4.6 mph - N/A   Clear
6:35 PM 66.2 °F - 44.6 °F 46% 29.99 in 10.0 mi WSW 4.6 mph - N/A   Clear
6:55 PM 62.6 °F - 44.6 °F 52% 30.00 in 10.0 mi SW 4.6 mph - N/A   Clear
7:15 PM 60.8 °F - 44.6 °F 55% 30.00 in 10.0 mi SSW 3.5 mph - N/A   Clear
7:35 PM 59.0 °F - 44.6 °F 59% 30.01 in 10.0 mi Calm Calm - N/A   Clear
7:55 PM 57.2 °F - 44.6 °F 63% 30.01 in 10.0 mi Calm Calm - N/A   Clear
8:15 PM 57.2 °F - 44.6 °F 63% 30.01 in 10.0 mi SW 3.5 mph - N/A   Clear
8:35 PM 55.4 °F - 46.4 °F 72% 30.02 in 10.0 mi SW 4.6 mph - N/A   Clear
8:55 PM 53.6 °F - 46.4 °F 77% 30.02 in 10.0 mi WSW 4.6 mph - N/A   Clear
9:15 PM 55.4 °F - 46.4 °F 72% 30.03 in 10.0 mi NNW 4.6 mph - N/A   Clear
9:35 PM 53.6 °F - 46.4 °F 77% 30.04 in 10.0 mi NNW 3.5 mph - N/A   Clear
10:15 PM 51.8 °F - 46.4 °F 82% 30.04 in 10.0 mi NW 3.5 mph - N/A   Clear
10:35 PM 51.8 °F - 46.4 °F 82% 30.05 in 10.0 mi Calm Calm - N/A   Clear
10:55 PM 51.8 °F - 46.4 °F 82% 30.05 in 10.0 mi Calm Calm - N/A   Clear
11:15 PM 53.6 °F - 46.4 °F 77% 30.05 in 10.0 mi Calm Calm - N/A   Clear